[[{"header":{"parameterUnit":"m.s-1","parameterCategory":1,"la1":30.2991,"la2":30.254,"lo1":-89.0895,"lo2":-89.0444,"dy":0.0017,"dx":0.0017,"nx":28,"ny":28,"refTime":"2024-08-13T09:00:00:Z","depth":0,"parameterNumber":2,"parameterNumberName":"U-component_of_WINDS"},"data":[0,0,0,0,0,0,0,0,0,0,0,0,0,0,0,0,0,0,0,0,0,0,0,0,0,0,0,0,0,0,0,0,0,0,0,0,0,0,0,0,0,0,0,0,0,0,0,0,0,0,0,0,0,0,0,0,0,0,1.0104,1.0106,0,1.0239,1.024,1.0242,1.0229,1.0227,1.0225,1.0223,1.0367,1.0373,1.0379,0,0,0,0,0,0,0,0,0,0,0,0,0,0.9843,0.9848,1.0104,1.0106,1.0108,1.0238,1.024,1.0242,1.0229,1.0227,1.0224,1.0222,1.0365,1.0372,1.0379,0,0,0,0,0,0,0,0,0,0,0,0,0,0.9965,0.9849,1.0104,1.0117,1.0119,1.0238,1.024,1.0243,1.023,1.0226,1.0223,1.022,1.0363,1.0372,1.038,1.0497,0,0,1.0407,1.0411,0,0,0,0,0,0,0,0,0.9958,0.9975,1.0113,1.0116,1.0119,1.0214,1.0201,1.0328,1.023,1.0188,1.0222,1.0219,1.0319,1.0331,1.0364,1.0504,1.051,1.0408,1.0413,1.0417,1.0419,0,0,0,0,0,0,0,0.995,0.9969,1.0158,1.0115,1.0119,1.0118,1.0132,1.0225,1.027,1.0191,1.0191,1.0206,1.032,1.0355,1.0367,1.0512,1.0407,1.0415,1.042,1.0424,1.0758,1.0761,0,0,0,0,0,0,0.9937,0.9962,1.0153,1.0162,1.0029,1.0125,1.0141,1.0187,1.0269,1.0278,1.0209,1.0205,1.0342,1.0357,1.0372,1.0516,1.0417,1.0425,1.043,1.0754,1.0759,1.0763,0,0,0,0,0,0,0.9932,0.9954,1.0148,1.0062,1.0086,1.0133,1.0185,1.0191,1.0226,1.0282,1.0291,1.0236,1.034,1.036,1.0466,1.0521,1.0429,1.0437,1.075,1.0756,1.0761,1.0805,0,0,0,0,0,0,0.9924,0.9952,0.9996,1.0063,1.0091,1.0238,1.0188,1.0196,1.024,1.0237,1.031,1.0319,1.0339,1.0453,1.0475,1.0532,1.0443,1.0745,1.0752,1.0759,1.0799,1.0811,1.0822,0,0,0,0,0,0.9915,1.0004,0.9998,1.0021,1.0146,1.0241,1.0258,1.0277,1.0244,1.029,1.0326,1.0317,1.0511,1.0464,1.0489,1.0549,1.0742,1.075,1.0758,1.0794,1.0809,1.0822,0,0,0,0,0,0,0.9946,1.0013,1.0007,1.012,1.0175,1.0239,1.0297,1.0292,1.0359,1.0353,1.0376,1.0393,1.05,1.0535,1.0481,1.0667,1.0623,1.0636,1.0641,1.0656,1.0667,1.0658,1.0451,0,0,0,0,0,0.9965,1.0034,1.0091,1.0185,1.0213,1.025,1.0292,1.0302,1.036,1.0384,1.0428,1.0487,1.0561,1.061,1.0681,1.0803,1.082,1.0856,1.0868,1.0877,1.0889,1.0958,1.0976,1.0789,1.0789,1.0789,0,0,1.0007,1.0052,1.0096,1.0193,1.0236,1.031,1.027,1.0349,1.0405,1.0397,1.05,1.0534,1.0602,1.0716,1.0769,1.0749,1.0944,1.0887,1.0894,1.0902,1.0968,1.0986,1.1002,1.0795,1.0794,1.0793,0,0,1.0122,1.0162,1.0246,1.0289,1.0355,1.0379,1.0399,1.0463,1.0485,1.0588,1.0584,1.0651,1.0779,1.0827,1.0869,1.1001,1.0996,1.1024,1.1085,1.1152,1.1167,1.118,1.123,1.1247,1.1035,1.1035,1.1035,0,1.0167,1.0276,1.029,1.0371,1.0415,1.0407,1.0494,1.0537,1.0623,1.0655,1.0629,1.0789,1.0834,1.0961,1.0993,1.1026,1.1052,1.1017,1.1163,1.1176,1.1189,1.1237,1.1255,1.1038,1.1038,1.1038,1.1037,0,1.0329,1.0405,1.0465,1.0546,1.0597,1.068,1.0709,1.0759,1.0764,1.0791,1.0898,1.095,1.1033,1.1063,1.107,1.1192,1.1178,1.1157,1.1113,1.121,1.1255,1.1273,1.1043,1.1042,1.1041,1.104,0,0,1.0469,1.0556,1.0578,1.0616,1.0687,1.0747,1.083,1.0909,1.0952,1.1012,1.1084,1.1191,1.1173,1.122,1.1232,1.129,1.1395,1.1263,1.1265,1.1288,1.1536,1.1553,1.1573,1.139,1.1393,1.1396,1.1531,0,1.0593,1.0739,1.0754,1.0886,1.0958,1.0951,1.1024,1.1077,1.1105,1.1171,1.1202,1.1279,1.1247,1.1276,1.1333,1.137,1.1445,1.136,1.1461,1.1465,1.1448,1.1597,1.1615,1.174,1.1548,1.1551,1.1554,0,1.0758,1.082,1.0958,1.102,1.105,1.1116,1.119,1.1252,1.1312,1.1328,1.138,1.1384,1.1473,1.1423,1.1547,1.1489,1.1531,1.1555,1.1561,1.1574,1.1517,1.1617,1.1779,1.1799,1.1581,1.1579,1.1577,0,1.085,1.0968,1.1067,1.1098,1.1172,1.1218,1.1251,1.1308,1.1355,1.1419,1.145,1.1525,1.1567,1.1626,1.1652,1.1612,1.1776,1.1727,1.1794,1.1794,1.1832,1.183,1.2007,1.1853,1.1853,1.1853,1.1852,0,1.0989,1.1075,1.1109,1.117,1.1266,1.1283,1.1379,1.141,1.146,1.1529,1.1528,1.1593,1.162,1.169,1.171,1.1812,1.183,1.1848,1.1853,1.185,1.1848,1.1881,1.1874,1.1858,1.1857,1.1856,1.1855,0,1.111,1.1136,1.1243,1.1303,1.132,1.1388,1.1441,1.1501,1.1526,1.1614,1.1635,1.1677,1.1759,1.1788,1.1889,1.1903,1.2021,1.2017,1.2001,1.2003,1.2069,1.2064,1.2276,1.2306,1.213,1.2131,1.2133,0,1.1199,1.1264,1.133,1.1375,1.1409,1.1481,1.1528,1.1547,1.1597,1.167,1.1722,1.1803,1.1869,1.2001,1.2042,1.2119,1.212,1.2188,1.2132,1.2127,1.2125,1.2122,1.213,1.22,1.2202,1.2204,1.2205,0,1.1354,1.1363,1.143,1.1501,1.1556,1.1614,1.167,1.1707,1.1735,1.1791,1.1874,1.1925,1.2026,1.2108,1.2187,1.2224,1.2221,1.2221,1.2242,1.2241,1.223,1.224,1.2033,1.2218,1.2216,1.2215,1.2215,1.2214,1.1464,1.1522,1.1578,1.1652,1.1696,1.1748,1.1807,1.1839,1.1908,1.1991,1.1998,1.2088,1.2148,1.2253,1.2293,1.2365,1.2347,1.2376,1.2384,1.2391,1.2398,1.2215,1.238,1.2379,1.2379,1.2379,1.2378,0,1.1622,1.1657,1.1725,1.1802,1.1861,1.1848,1.191,1.1961,1.2039,1.2094,1.2158,1.2254,1.2333,1.2379,1.2459,1.2508,1.2509,1.2529,1.2527,1.2536,1.2408,1.2384,1.2527,1.2527,1.2527,1.2527,1.2527,1.2527,1.1712,1.181,1.1826,1.1947,1.1982,1.2068,1.2104,1.2153,1.2197,1.2303,1.2368,1.2396,1.2448,1.2531,1.2604,1.2616,1.2647,1.2669,1.268,1.256,1.2545,1.2531,1.2508,1.2675,1.2675,1.2802,1.2803,1.2804]},{"header":{"parameterUnit":"m.s-1","parameterCategory":1,"la1":30.2991,"la2":30.254,"lo1":-89.0895,"lo2":-89.0444,"dy":0.0017,"dx":0.0017,"nx":28,"ny":28,"refTime":"2024-08-13T09:00:00:Z","depth":0,"parameterNumber":3,"parameterNumberName":"V-component_of_WINDS"},"data":[0,0,0,0,0,0,0,0,0,0,0,0,0,0,0,0,0,0,0,0,0,0,0,0,0,0,0,0,0,0,0,0,0,0,0,0,0,0,0,0,0,0,0,0,0,0,0,0,0,0,0,0,0,0,0,0,0,0,0.414,0.414,0,0.4161,0.4161,0.4161,0.412,0.4118,0.4117,0.4116,0.4136,0.4138,0.414,0,0,0,0,0,0,0,0,0,0,0,0,0,0.4064,0.4065,0.414,0.414,0.4141,0.4161,0.4161,0.4161,0.412,0.4118,0.4117,0.4115,0.4136,0.4138,0.414,0,0,0,0,0,0,0,0,0,0,0,0,0,0.4092,0.4066,0.414,0.4122,0.4121,0.4161,0.4161,0.4161,0.412,0.4118,0.4116,0.4114,0.4135,0.4138,0.414,0.4198,0,0,0.4149,0.415,0,0,0,0,0,0,0,0,0.409,0.4095,0.4125,0.4124,0.4122,0.4136,0.4142,0.4174,0.4121,0.4121,0.4116,0.4113,0.4138,0.414,0.4148,0.4199,0.42,0.4149,0.4151,0.4152,0.4153,0,0,0,0,0,0,0,0.4088,0.4093,0.4148,0.4125,0.4124,0.4113,0.4115,0.4147,0.414,0.412,0.4117,0.412,0.4137,0.4146,0.4149,0.42,0.4149,0.4151,0.4153,0.4154,0.4296,0.4298,0,0,0,0,0,0,0.4089,0.4092,0.4148,0.4149,0.4101,0.4116,0.4118,0.4133,0.414,0.4139,0.4122,0.4118,0.4142,0.4145,0.4149,0.4215,0.4152,0.4154,0.4156,0.4294,0.4297,0.4299,0,0,0,0,0,0,0.4087,0.4094,0.4147,0.412,0.4126,0.412,0.4137,0.4135,0.4144,0.4141,0.414,0.4133,0.4141,0.4145,0.4186,0.4215,0.4156,0.4158,0.4292,0.4295,0.4298,0.4348,0,0,0,0,0,0,0.4085,0.4094,0.4116,0.4121,0.4127,0.4183,0.4139,0.4137,0.4149,0.4144,0.4151,0.415,0.414,0.4182,0.4188,0.4218,0.416,0.4289,0.4293,0.4297,0.4343,0.4352,0.436,0,0,0,0,0,0.4083,0.413,0.4117,0.4124,0.4155,0.4185,0.4189,0.4176,0.4152,0.4173,0.4171,0.415,0.4211,0.4186,0.4193,0.4224,0.4287,0.4292,0.4297,0.434,0.435,0.436,0,0,0,0,0,0,0.4129,0.413,0.4116,0.4166,0.4176,0.4178,0.4205,0.4188,0.4205,0.42,0.4183,0.4185,0.4228,0.423,0.4202,0.4279,0.4245,0.4251,0.4275,0.4285,0.4293,0.4291,0.4162,0,0,0,0,0,0.4145,0.417,0.4169,0.4214,0.4219,0.4212,0.4224,0.4213,0.4223,0.4226,0.4227,0.4237,0.4258,0.4272,0.4292,0.4344,0.4344,0.4369,0.4377,0.4384,0.4389,0.4414,0.4424,0.4315,0.4315,0.4315,0,0,0.4178,0.4182,0.4199,0.4223,0.4229,0.4254,0.4215,0.4244,0.4262,0.4231,0.4268,0.4269,0.4279,0.4325,0.4345,0.4328,0.4419,0.439,0.4395,0.4396,0.442,0.443,0.4439,0.4318,0.4318,0.4317,0,0,0.4251,0.4258,0.4294,0.43,0.431,0.4305,0.4313,0.4318,0.4317,0.4355,0.4331,0.4352,0.439,0.4397,0.4405,0.448,0.446,0.4487,0.4529,0.4554,0.4562,0.457,0.4593,0.4603,0.4492,0.4492,0.4493,0,0.4291,0.4328,0.4315,0.4344,0.4354,0.4328,0.4363,0.437,0.4386,0.4393,0.4375,0.4419,0.4424,0.447,0.4488,0.4497,0.4505,0.4485,0.4562,0.4569,0.4576,0.4599,0.4608,0.4495,0.4495,0.4495,0.4494,0,0.4376,0.4402,0.443,0.4444,0.4458,0.4491,0.4481,0.4497,0.4485,0.4481,0.4519,0.4523,0.4542,0.4553,0.4542,0.4597,0.4585,0.4565,0.453,0.459,0.461,0.4619,0.45,0.4499,0.4498,0.4497,0,0,0.4477,0.4483,0.4494,0.4499,0.4507,0.4527,0.4558,0.4576,0.4589,0.4601,0.4625,0.4657,0.4637,0.4647,0.4636,0.4659,0.4714,0.4635,0.4635,0.4647,0.4772,0.4785,0.4795,0.4702,0.4704,0.4705,0.477,0,0.4547,0.46,0.4588,0.4639,0.4662,0.4636,0.4663,0.467,0.4668,0.4686,0.4684,0.4705,0.4679,0.4684,0.4706,0.4703,0.4738,0.4698,0.4722,0.4723,0.4718,0.4807,0.4821,0.4882,0.4778,0.478,0.4781,0,0.4635,0.4649,0.4703,0.4706,0.4715,0.4739,0.4753,0.4772,0.478,0.4776,0.4786,0.4771,0.4801,0.4768,0.4807,0.478,0.4789,0.479,0.4792,0.4791,0.4754,0.4806,0.4902,0.491,0.4794,0.4793,0.4792,0,0.47,0.4733,0.4768,0.4774,0.4779,0.4796,0.4799,0.4805,0.4816,0.4829,0.4836,0.4853,0.4861,0.4874,0.4863,0.4841,0.4904,0.487,0.49,0.49,0.4912,0.4911,0.5008,0.4923,0.4923,0.4923,0.4923,0,0.4778,0.4811,0.4797,0.4819,0.4855,0.4841,0.4877,0.4876,0.4882,0.4902,0.4882,0.4902,0.4888,0.4906,0.4898,0.493,0.4935,0.4932,0.4929,0.4932,0.4932,0.4936,0.493,0.4925,0.4925,0.4924,0.4924,0,0.4856,0.4848,0.4885,0.4886,0.4887,0.4913,0.4914,0.4933,0.493,0.4956,0.4961,0.4954,0.4975,0.4966,0.4988,0.4982,0.5023,0.5016,0.502,0.5017,0.5046,0.5042,0.5147,0.5158,0.5069,0.507,0.507,0,0.4904,0.4929,0.4932,0.4944,0.4948,0.4968,0.4979,0.4966,0.4978,0.4988,0.5006,0.5025,0.5038,0.5072,0.5069,0.5085,0.5076,0.5112,0.5078,0.508,0.5073,0.5071,0.5072,0.5118,0.5119,0.512,0.512,0,0.499,0.4985,0.5001,0.5016,0.5029,0.504,0.505,0.5061,0.5048,0.5063,0.5083,0.5094,0.5115,0.5133,0.5147,0.5149,0.5132,0.5131,0.5138,0.514,0.514,0.5138,0.5035,0.5128,0.5127,0.5127,0.5126,0.5126,0.5053,0.5072,0.5077,0.5095,0.5101,0.511,0.5128,0.5126,0.5142,0.5158,0.515,0.5173,0.5178,0.5195,0.52,0.5217,0.5203,0.5214,0.5216,0.5219,0.5221,0.514,0.522,0.522,0.522,0.5219,0.5219,0,0.5135,0.5137,0.5154,0.5167,0.5181,0.5164,0.5174,0.5186,0.5206,0.5213,0.5227,0.5249,0.5266,0.5265,0.528,0.5294,0.5286,0.5298,0.5295,0.5296,0.5234,0.5225,0.5304,0.5304,0.5304,0.5304,0.5304,0.5304,0.5179,0.521,0.5206,0.5239,0.5241,0.5263,0.5269,0.5277,0.5282,0.5307,0.5321,0.532,0.5323,0.5338,0.5352,0.5351,0.5357,0.5371,0.5367,0.5309,0.53,0.5292,0.5283,0.5373,0.5373,0.5426,0.5427,0.5427]}]]